Regional Weather Roundup
Issued by NWS Jackson, KY

Home | Current Version | Previous Version | Graphics & Text | Print | Product List | Glossary On
Versions: 1 2 3 4 5 6 7 8 9 10 11 12 13 14 15 16 17 18 19 20 21 22 23 24 25 26 27 28 29 30 31 32 33 34 35 36 37 38 39 40 41 42 43 44 45 46 47 48 49 50
000
ASUS43 KJKL 261410
RWRJKL

EAST KENTUCKY HOURLY WEATHER ROUNDUP
NATIONAL WEATHER SERVICE JACKSON KY
1000 AM EDT TUE MAY 26 2015

NOTE: "FAIR" INDICATES FEW OR NO CLOUDS BELOW 12,000 FEET WITH
NO SIGNIFICANT WEATHER AND/OR OBSTRUCTIONS TO VISIBILITY.

* THESE REPORTS ARE NOT UNDER NWS QUALITY CONTROL AND MAY NOT
  REPORT WEATHER SUCH AS PRECIPITATION AND FOG.

KYZ079-080-083-085-087-088-110-112-115-119-120-261500
...EASTERN KENTUCKY...

CITY           SKY/WX    TMP DP  RH WIND       PRES   REMARKS
JACKSON        MOSUNNY   74  64  71 VRB6      30.20F
LONDON         MOSUNNY   76  63  64 S13G22    30.19F
SOMERSET*      CLOUDY    73  64  73 S12G18    30.18F
MONTICELLO*    MOSUNNY   78  68  71 S13G23    30.19S
MIDDLESBORO*   CLOUDY    71  66  85 CALM      30.23F
HARLAN APT*    CLOUDY    73  63  68 CALM      30.23F
HAZARD APT*    MOSUNNY   75  63  64 S8        30.20F
BLACK MTN*       N/A     64  61  88 S5          N/A
PIKEVILLE APT* MOSUNNY   73  63  68 S3        30.22F
BIG SANDY*     PTSUNNY   78  64  62 S9        30.20F
MOREHEAD APT*  PTSUNNY   75  66  73 S8        30.19F
$$

KYZ035-036-041-042-044-050-067-078-099-261500
...CENTRAL KENTUCKY...

CITY           SKY/WX    TMP DP  RH WIND       PRES   REMARKS
MT STERLING*   MOSUNNY   73  66  78 SW9       30.18F
FLEMING/MASON* SUNNY     75  66  73 S14       30.17F
DANVILLE*      PTSUNNY   73  66  78 S12G18    30.16F
RICHMOND*      PTSUNNY   77  64  65 S14G20    30.16S
LEXINGTON      CLOUDY    73  67  81 S10       30.14F
FRANKFORT      CLOUDY    74  65  73 S10       30.11F
$$

KYZ091>093-OHZ055-061-077-WVZ005-015-034-035-042-261500
...SOUTHERN OHIO/WEST VIRGINIA...

CITY           SKY/WX    TMP DP  RH WIND       PRES   REMARKS
COVINGTON      MOSUNNY   74  65  73 S13       30.11F
COLUMBUS       CLOUDY    73  65  75 S9        30.15S
DAYTON         PTSUNNY   75  64  68 S17       30.12F
WILMINGTON     MOSUNNY   74  63  68 SW14G22   30.14S
HUNTINGTON     CLOUDY    72  66  81 S5        30.18F
CHARLESTON     CLOUDY    73  62  68 CALM      30.21S
PINEVILLE*     CLOUDY    69  66  90 MISG      30.31F
BECKLEY        CLOUDY    69  60  73 S7        30.30S
BLUEFIELD      CLOUDY    69  59  70 MISG      30.33S
$$

VAZ002-007-008-TNZ017-027-036-066-071-261500
...SOUTHWEST VIRGINIA/EAST TENNESSEE...

CITY           SKY/WX    TMP DP  RH WIND       PRES   REMARKS
WISE*          CLOUDY    70  59  68 S9        30.30S
JONESVILLE*    CLOUDY    73  64  73 S3        30.26S
ABINGDON*      PTSUNNY   76  67  73 CALM      30.29F
BRISTOL        PTSUNNY   74  65  73 S8        30.26S
KNOXVILLE      CLOUDY    73  64  73 CALM      30.20F
OAK RIDGE      PTSUNNY   74  67  78 SW3       30.22F
CROSSVILLE     PTSUNNY   72  66  81 S12G17    30.21F
NASHVILLE      CLOUDY    74  68  81 S16G28    30.10S
$$

...KEY TO REMARKS...
VSB - VISIBILITY IN MILES
WCI - WIND CHILL INDEX
HX  - HEAT INDEX

$$


USA.gov is the U.S. government's official web portal to all federal, state and local government web resources and services.